Location: Riverton
(43.0250°N, 108.3790°W)
Time: 01:48:16
(UTC-06:00)

Amateur Radio Satellites - All Passes

Search period start: 19 September 2014 01:18
Search period end: 20 September 2014 01:18
Location: Riverton, 43.0250°N, 108.3790°W

Satellite Date Start Highest point End Downlink Frequencies (MHz)
Time Altitude Azimuth
Oscar 19 19 Sep 01:40:58 01:44:12 17° 91° (E) 01:47:25 437.125 CW, 437.150 USB
Saudisat 1A 19 Sep 01:58:26 02:02:34 37° 48° (NE) 02:06:41 436.775 MHz
KITSAT 1 19 Sep 02:08:00 02:12:43 16° 19° (NNE) 02:17:25 435.175 FM
UOSAT-12 19 Sep 02:15:27 02:19:29 28° 316° (NW) 02:23:35 437.025 FM, 437.400 FM
Oscar 16 19 Sep 02:18:28 02:23:18 38° 97° (E) 02:28:05 437.025 USB, Beacon 2401.1428
AO-Echo 19 Sep 02:37:32 02:41:39 27° 95° (E) 02:45:51 ?
Gurwin Techsat 1B 19 Sep 02:45:58 02:48:41 14° 89° (E) 02:51:24 435.225 FM
ITAMSAT 1 19 Sep 03:00:20 03:05:13 39° 98° (E) 03:10:04 435.822 SSB
Uribyol 2 19 Sep 03:04:38 03:09:40 45° 99° (E) 03:14:39 436.500 FM
JAS-1B 19 Sep 03:15:25 03:21:08 57° 101° (E) 03:26:44 435.800 - 435.900 CW/SSB
Oscar 19 19 Sep 03:18:52 03:23:59 63° 288° (WNW) 03:29:03 437.125 CW, 437.150 USB
TMSAT-1 19 Sep 03:22:21 03:26:30 23° 93° (E) 03:30:37 436.925 FM
AO-27 19 Sep 03:34:57 03:40:12 82° 104° (ESE) 03:45:25 436.795 MHz FM
ISS 19 Sep 03:35:10 03:38:26 57° 143° (SE) 03:41:43 145.800 FM
Saudisat 1A 19 Sep 03:38:19 03:42:00 26° 246° (WSW) 03:45:39 436.775 MHz
OPAL 19 Sep 03:53:14 03:57:19 24° 61° (ENE) 04:01:26 ?
Oscar 16 19 Sep 03:58:07 04:02:30 28° 295° (WNW) 04:06:50 437.025 USB, Beacon 2401.1428
RS-15 19 Sep 03:58:44 04:08:25 37° 107° (ESE) 04:17:57 29.354 - 29.394 USB, Beacon 29.352 USB
KITSAT 1 19 Sep 04:03:06 04:10:41 42° 46° (NE) 04:18:13 435.175 FM
AO-Echo 19 Sep 04:16:06 04:20:27 35° 291° (WNW) 04:24:54 ?
Gurwin Techsat 1B 19 Sep 04:23:55 04:29:14 76° 286° (WNW) 04:34:31 435.225 FM
ITAMSAT 1 19 Sep 04:40:09 04:44:32 28° 295° (WNW) 04:48:56 435.822 SSB
Uribyol 2 19 Sep 04:44:41 04:48:52 25° 296° (WNW) 04:53:02 436.500 FM
TMSAT-1 19 Sep 05:01:34 05:06:39 48° 290° (WNW) 05:11:42 436.925 FM
JAS-1B 19 Sep 05:07:13 05:11:21 20° 301° (WNW) 05:15:22 435.800 - 435.900 CW/SSB
ISS 19 Sep 05:12:23 05:15:20 28° 341° (NNW) 05:18:17 145.800 FM
AO-27 19 Sep 05:16:15 05:19:01 15° 301° (WNW) 05:21:48 436.795 MHz FM
AO-7 19 Sep 05:24:41 05:32:51 58° 103° (ESE) 05:40:57 29.400 - 29.500 MHz
Uosat F 19 Sep 05:25:12 05:30:08 54° 101° (E) 05:35:03 435.120 FM
OPAL 19 Sep 05:30:53 05:35:52 48° 258° (WSW) 05:40:56 ?
SO-50 19 Sep 05:44:02 05:46:00 12° 31° (NNE) 05:47:59 436.795 FM
KITSAT 1 19 Sep 05:58:32 06:06:18 53° 247° (WSW) 06:14:01 435.175 FM
Gurwin Techsat 1B 19 Sep 06:06:43 06:08:17 11° 304° (NW) 06:09:51 435.225 FM
RS-15 19 Sep 06:09:07 06:20:04 67° 310° (NW) 06:30:59 29.354 - 29.394 USB, Beacon 29.352 USB
STRAND 1 19 Sep 06:11:46 06:15:57 27° 65° (ENE) 06:20:09 ?
JAS-2 19 Sep 06:24:45 06:30:15 35° 97° (E) 06:36:20 435.800 - 435.900 CW/SSB, 435.910 FM
ISS 19 Sep 06:50:24 06:52:49 18° 1° (N) 06:55:13 145.800 FM
Hamsat 19 Sep 06:55:11 06:59:22 53° 100° (E) 07:03:29 145.90 MHz
Uosat F 19 Sep 07:04:56 07:08:32 20° 298° (WNW) 07:12:07 435.120 FM
AO-7 19 Sep 07:18:01 07:25:15 36° 302° (WNW) 07:32:30 29.400 - 29.500 MHz
SO-50 19 Sep 07:22:53 07:27:37 55° 52° (NE) 07:32:23 436.795 FM
UOSAT-12 19 Sep 07:25:22 07:26:43 11° 29° (NNE) 07:28:04 437.025 FM, 437.400 FM
STRAND 1 19 Sep 07:50:12 07:54:57 40° 262° (W) 07:59:44 ?
JAS-2 19 Sep 08:09:52 08:15:20 40° 292° (WNW) 08:21:25 435.800 - 435.900 CW/SSB, 435.910 FM
MaSat-1 19 Sep 08:23:41 08:28:06 32° 108° (ESE) 08:32:28 437.345 MHz
RS-15 19 Sep 08:26:03 08:35:00 28° 339° (NNW) 08:44:02 29.354 - 29.394 USB, Beacon 29.352 USB
ISS 19 Sep 08:27:14 08:30:16 31° 21° (NNE) 08:33:17 145.800 FM
Hamsat 19 Sep 08:32:27 08:34:53 15° 297° (WNW) 08:37:18 145.90 MHz
HO-68 19 Sep 08:42:37 08:45:57 14° 87° (E) 08:49:16 435.675 MHz FM
SO-67 19 Sep 08:45:25 08:48:47 49° 286° (WNW) 08:52:07 435.3500 MHz FM
UOSAT-12 19 Sep 09:03:26 09:08:03 48° 50° (NE) 09:12:34 437.025 FM, 437.400 FM
SO-50 19 Sep 09:04:19 09:07:49 20° 249° (WSW) 09:11:19 436.795 FM
MaSat-1 19 Sep 10:00:10 10:04:48 36° 304° (NW) 10:09:20 437.345 MHz
Oscar 11 19 Sep 10:03:27 10:06:26 18° 92° (E) 10:09:24 145.825 FM, Beacon 2401.500 USB
ISS 19 Sep 10:03:52 10:07:04 46° 219° (SW) 10:10:16 145.800 FM
UKube-1 19 Sep 10:19:02 10:23:02 34° 98° (E) 10:27:00 145.840 MHz, 145.915 MHz
HO-68 19 Sep 10:27:30 10:34:43 79° 105° (ESE) 10:41:55 435.675 MHz FM
RS-15 19 Sep 10:43:34 10:52:16 26° 15° (NNE) 11:01:06 29.354 - 29.394 USB, Beacon 29.352 USB
UOSAT-12 19 Sep 10:44:16 10:47:53 22° 248° (WSW) 10:51:27 437.025 FM, 437.400 FM
Sapphire 19 Sep 11:23:50 11:25:03 11° 101° (E) 11:26:15 437.095 MHz 1200 baud AX-25 AFSK
FUNcube-1 19 Sep 11:27:19 11:31:55 60° 100° (E) 11:36:27 145.950 - 145.970 MHz USB
Oscar 11 19 Sep 11:38:42 11:42:49 42° 289° (WNW) 11:46:54 145.825 FM, Beacon 2401.500 USB
PCSat 19 Sep 11:47:47 11:51:43 21° 106° (ESE) 11:55:41 145.825 MHz
UKube-1 19 Sep 11:55:36 11:59:03 23° 294° (WNW) 12:02:30 145.840 MHz, 145.915 MHz
JAS-1B 19 Sep 12:15:13 12:18:15 13° 53° (NE) 12:21:06 435.800 - 435.900 CW/SSB
HO-68 19 Sep 12:16:23 12:21:40 23° 304° (NW) 12:26:58 435.675 MHz FM
Uribyol 2 19 Sep 12:48:48 12:50:00 11° 56° (NE) 12:51:13 436.500 FM
RS-15 19 Sep 12:56:55 13:07:46 56° 46° (NE) 13:19:00 29.354 - 29.394 USB, Beacon 29.352 USB
Oscar 19 19 Sep 12:58:23 13:02:43 28° 65° (ENE) 13:07:04 437.125 CW, 437.150 USB
Sapphire 19 Sep 13:02:09 13:07:33 81° 119° (ESE) 13:12:59 437.095 MHz 1200 baud AX-25 AFSK
FUNcube-1 19 Sep 13:05:02 13:07:48 16° 298° (WNW) 13:10:34 145.950 - 145.970 MHz USB
AO-27 19 Sep 13:16:47 13:20:19 19° 61° (ENE) 13:23:51 436.795 MHz FM
PCSat 19 Sep 13:29:21 13:34:40 59° 304° (NW) 13:40:03 145.825 MHz
Oscar 16 19 Sep 13:36:12 13:41:18 61° 72° (ENE) 13:46:26 437.025 USB, Beacon 2401.1428
AO-Echo 19 Sep 13:51:37 13:55:59 38° 69° (ENE) 14:00:19 ?
JAS-1B 19 Sep 13:59:22 14:07:45 61° 71° (ENE) 14:14:47 435.800 - 435.900 CW/SSB
Gurwin Techsat 1B 19 Sep 14:07:25 14:11:42 26° 64° (ENE) 14:16:00 435.225 FM
ITAMSAT 1 19 Sep 14:19:14 14:24:19 65° 72° (ENE) 14:29:28 435.822 SSB
Uribyol 2 19 Sep 14:23:25 14:28:34 75° 74° (ENE) 14:33:46 436.500 FM
AO-7 19 Sep 14:35:26 14:41:05 21° 49° (NE) 14:46:42 29.400 - 29.500 MHz
Oscar 19 19 Sep 14:37:01 14:41:52 40° 262° (W) 14:46:45 437.125 CW, 437.150 USB
TMSAT-1 19 Sep 14:43:50 14:48:42 39° 68° (ENE) 14:53:35 436.925 FM
Sapphire 19 Sep 14:47:46 14:51:38 20° 319° (NW) 14:55:32 437.095 MHz 1200 baud AX-25 AFSK
AO-27 19 Sep 14:54:15 14:59:21 61° 259° (WSW) 15:04:30 436.795 MHz FM
Uosat F 19 Sep 15:04:50 15:06:23 11° 57° (ENE) 15:07:55 435.120 FM
RS-15 19 Sep 15:09:36 15:20:01 48° 249° (WSW) 15:30:51 29.354 - 29.394 USB, Beacon 29.352 USB
PCSat 19 Sep 15:16:49 15:19:17 13° 326° (NW) 15:21:46 145.825 MHz
Oscar 16 19 Sep 15:17:42 15:21:04 17° 269° (W) 15:24:26 437.025 USB, Beacon 2401.1428
AO-Echo 19 Sep 15:31:09 15:34:53 23° 266° (W) 15:38:37 ?
Gurwin Techsat 1B 19 Sep 15:46:22 15:51:25 44° 261° (W) 15:56:30 435.225 FM
JAS-1B 19 Sep 15:51:19 15:58:32 29° 265° (W) 16:04:51 435.800 - 435.900 CW/SSB
ITAMSAT 1 19 Sep 16:01:09 16:04:17 16° 269° (W) 16:07:26 435.822 SSB
Uribyol 2 19 Sep 16:06:03 16:08:36 14° 271° (W) 16:11:11 436.500 FM
TMSAT-1 19 Sep 16:24:13 16:28:42 28° 265° (W) 16:33:13 436.925 FM
AO-7 19 Sep 16:24:22 16:32:40 81° 70° (ENE) 16:41:00 29.400 - 29.500 MHz
Uosat F 19 Sep 16:39:21 16:44:21 82° 74° (ENE) 16:49:22 435.120 FM
JAS-2 19 Sep 16:41:46 16:44:19 14° 58° (ENE) 16:46:52 435.800 - 435.900 CW/SSB, 435.910 FM
OPAL 19 Sep 17:39:52 17:44:45 41° 100° (E) 17:49:32 ?
Saudisat 1A 19 Sep 17:44:41 17:49:02 64° 121° (ESE) 17:53:25 436.775 MHz
Hamsat 19 Sep 17:49:09 17:53:17 43° 72° (ENE) 17:57:25 145.90 MHz
MaSat-1 19 Sep 18:15:42 18:19:37 68° 61° (ENE) 18:22:55 437.345 MHz
AO-7 19 Sep 18:20:15 18:26:18 22° 268° (W) 18:32:24 29.400 - 29.500 MHz
Uosat F 19 Sep 18:22:04 18:23:45 12° 271° (W) 18:25:26 435.120 FM
JAS-2 19 Sep 18:23:31 18:28:47 78° 257° (WSW) 18:34:00 435.800 - 435.900 CW/SSB, 435.910 FM
KITSAT 1 19 Sep 18:34:46 18:40:26 21° 103° (ESE) 18:46:06 435.175 FM
HO-68 19 Sep 19:13:56 19:17:16 14° 49° (NE) 19:20:35 435.675 MHz FM
SO-67 19 Sep 19:18:51 19:22:14 56° 75° (ENE) 19:25:38 435.3500 MHz FM
OPAL 19 Sep 19:19:06 19:23:25 27° 298° (WNW) 19:27:41 ?
Saudisat 1A 19 Sep 19:25:49 19:29:01 19° 320° (NW) 19:32:15 436.775 MHz
Hamsat 19 Sep 19:26:27 19:29:26 18° 268° (W) 19:32:25 145.90 MHz
STRAND 1 19 Sep 19:59:21 20:04:28 64° 102° (ESE) 20:09:33 ?
Sapphire 19 Sep 20:07:04 20:10:24 16° 38° (NE) 20:13:43 437.095 MHz 1200 baud AX-25 AFSK
KITSAT 1 19 Sep 20:26:44 20:34:51 85° 302° (WNW) 20:43:00 435.175 FM
PCSat 19 Sep 20:33:31 20:37:56 25° 45° (NE) 20:42:20 145.825 MHz
HO-68 19 Sep 20:56:36 21:03:37 65° 69° (ENE) 21:10:41 435.675 MHz FM
Oscar 11 19 Sep 20:59:51 21:02:43 17° 64° (ENE) 21:05:34 145.825 FM, Beacon 2401.500 USB
UKube-1 19 Sep 21:15:28 21:19:23 34° 69° (ENE) 21:23:19 145.840 MHz, 145.915 MHz
STRAND 1 19 Sep 21:39:47 21:43:08 18° 299° (WNW) 21:46:30 ?
SO-50 19 Sep 21:41:25 21:43:28 13° 108° (ESE) 21:45:32 436.795 FM
Sapphire 19 Sep 21:49:17 21:54:44 78° 59° (ENE) 22:00:10 437.095 MHz 1200 baud AX-25 AFSK
PCSat 19 Sep 22:16:24 22:21:45 60° 244° (WSW) 22:27:04 145.825 MHz
FUNcube-1 19 Sep 22:24:27 22:28:43 53° 73° (ENE) 22:33:08 145.950 - 145.970 MHz USB
KITSAT 1 19 Sep 22:24:56 22:31:28 26° 325° (NW) 22:38:01 435.175 FM
Oscar 11 19 Sep 22:34:18 22:38:31 48° 261° (W) 22:42:46 145.825 FM, Beacon 2401.500 USB
HO-68 19 Sep 22:46:11 22:51:49 25° 267° (W) 22:57:30 435.675 MHz FM
UKube-1 19 Sep 22:52:15 22:55:39 22° 265° (W) 22:59:04 145.840 MHz, 145.915 MHz
SO-50 19 Sep 23:18:54 23:23:22 73° 306° (NW) 23:28:00 436.795 FM
UOSAT-12 19 Sep 23:19:16 23:20:15 11° 106° (ESE) 23:21:14 437.025 FM, 437.400 FM
Sapphire 19 Sep 23:34:28 23:37:28 15° 256° (WSW) 23:40:27 437.095 MHz 1200 baud AX-25 AFSK
FUNcube-1 20 Sep 00:02:51 00:05:28 15° 270° (W) 00:08:07 145.950 - 145.970 MHz USB
KITSAT 1 20 Sep 00:26:43 00:30:20 13° 355° (N) 00:33:58 435.175 FM
Saudisat 1A 20 Sep 00:32:37 00:34:31 12° 34° (NNE) 00:36:25 436.775 MHz
UOSAT-12 20 Sep 00:54:59 00:59:37 90° 123° (ESE) 01:04:22 437.025 FM, 437.400 FM
SO-50 20 Sep 01:02:23 01:04:48 14° 326° (NNW) 01:07:14 436.795 FM
